Harrisburg, PA

3:38 AM EDT on October 19, 2017 (GMT -0400)
Capital City

Weather History for KCXY - December, 2012

Change the Weather History Date:

Sunday, December 23, 2012

  Actual Average Record
Temperature  
Mean Temperature 36 °F -  
Max Temperature 45 °F 37 °F 65 °F (1990)
Min Temperature 27 °F 23 °F -8 °F (1960)
Degree Days  
Heating Degree Days 28    
Moisture  
Dew Point 20 °F    
Average Humidity 59    
Maximum Humidity 85    
Minimum Humidity 34    
Precipitation  
Precipitation 0.00 in - - ()
Sea Level Pressure  
Sea Level Pressure 29.98 in    
Wind  
Wind Speed 6 mph (WSW)    
Max Wind Speed 12 mph    
Max Gust Speed -    
Visibility 10 miles    
Events      
Averages and records for this station are not official NWS values.
T = Trace of Precipitation, MM = Missing Value Source: NWS Daily Summary

Daily Weather History Graph

Daily Weather History Graph

Search for Another Location

Airport or City:

Trip Planner

Search our weather history database for the weather conditions in past years. The results will help you decide how hot, cold, wet, or windy it might be!

Date:

Astronomy

Dec. 23, 2012 Rise Set
Actual Time 7:27 AM EST 4:46 PM EST
Civil Twilight 6:56 AM EST 5:16 PM EST
Nautical Twilight 6:22 AM EST 5:50 PM EST
Astronomical Twilight 5:49 AM EST 6:24 PM EST
Moon 1:35 PM EST (12/23) 3:07 AM EST (12/23)
Length of Visible Light 10h 19m
Length of Day
9h 18m
Waxing Gibbous, 81% of the Moon is Illuminated
Dec 23
Waxing Gibbous
Dec 28
Full
Jan 4
Last Quarter
Jan 11
New
Jan 18
First Quarter

Hourly Weather History & Observations

Time (EST) Temp. Windchill Dew Point Humidity Pressure Visibility Wind Dir Wind Speed Gust Speed Precip Events Conditions
12:56 AM 32.0 °F 25.6 °F 19.9 °F 61% 29.99 in 10.0 mi West 6.9 mph - N/A   Partly Cloudy
1:56 AM 32.0 °F 25.6 °F 21.0 °F 64% 30.00 in 10.0 mi WSW 6.9 mph - N/A   Overcast
2:56 AM 33.1 °F 26.9 °F 21.0 °F 61% 30.01 in 10.0 mi West 6.9 mph - N/A   Overcast
3:56 AM 33.1 °F 24.4 °F 21.0 °F 61% 30.02 in 10.0 mi West 11.5 mph - N/A   Overcast
4:56 AM 30.9 °F 22.8 °F 19.9 °F 64% 30.02 in 10.0 mi West 9.2 mph - N/A   Scattered Clouds
5:56 AM 28.9 °F 21.9 °F 19.9 °F 69% 30.03 in 10.0 mi WSW 6.9 mph - N/A   Clear
6:56 AM 28.9 °F 21.9 °F 19.0 °F 67% 30.04 in 10.0 mi WSW 6.9 mph - N/A   Clear
7:56 AM 28.9 °F 21.1 °F 19.0 °F 67% 30.05 in 10.0 mi SW 8.1 mph - N/A   Clear
8:56 AM 30.9 °F 24.3 °F 19.0 °F 61% 30.04 in 10.0 mi WSW 6.9 mph - N/A   Clear
9:56 AM 34.0 °F 26.6 °F 19.0 °F 54% 30.04 in 10.0 mi SW 9.2 mph - N/A   Clear
10:56 AM 37.0 °F 29.8 °F 19.9 °F 50% 30.01 in 10.0 mi SW 10.4 mph - N/A   Clear
11:56 AM 39.0 °F 34.0 °F 19.9 °F 46% 29.96 in 10.0 mi SW 6.9 mph - N/A   Clear
12:56 PM 42.1 °F 37.1 °F 19.0 °F 40% 29.92 in 10.0 mi SW 8.1 mph - N/A   Clear
1:56 PM 44.1 °F 42.5 °F 18.0 °F 35% 29.90 in 10.0 mi Variable 3.5 mph - N/A   Clear
2:56 PM 45.0 °F 40.6 °F 18.0 °F 34% 29.89 in 10.0 mi SW 8.1 mph - N/A   Clear
3:56 PM 45.0 °F 42.6 °F 19.0 °F 36% 29.89 in 10.0 mi WSW 4.6 mph - N/A   Clear
4:56 PM 43.0 °F - 18.0 °F 37% 29.90 in 10.0 mi Calm Calm - N/A   Clear
5:56 PM 34.0 °F - 21.9 °F 61% 29.92 in 10.0 mi Calm Calm - N/A   Clear
6:56 PM 33.1 °F 30.0 °F 21.9 °F 64% 29.93 in 10.0 mi SW 3.5 mph - N/A   Clear
7:56 PM 30.9 °F - 23.0 °F 72% 29.94 in 10.0 mi Calm Calm - N/A   Clear
8:56 PM 28.0 °F 24.2 °F 21.9 °F 78% 29.96 in 10.0 mi SW 3.5 mph - N/A   Clear
9:56 PM 28.0 °F - 21.9 °F 78% 29.98 in 10.0 mi Calm Calm - N/A   Clear
10:56 PM 28.0 °F 22.8 °F 21.9 °F 78% 30.00 in 10.0 mi WSW 4.6 mph - N/A   Clear
11:56 PM 27.0 °F - 23.0 °F 85% 30.00 in 10.0 mi Calm Calm - N/A   Clear